Weather History for Claremore, OK

Change the Weather History Date:

Tuesday, March 12, 2013

  Actual Average (KTUL) Record (KTUL)
Temperature  
Mean Temperature 44 °F 50 °F  
Max Temperature 59 °F 61 °F 91 °F (1967)
Min Temperature 30 °F 39 °F -3 °F (1948)
Degree Days  
Heating Degree Days 20 15  
Month to date heating degree days 202  
Since 1 July heating degree days 3113  
Cooling Degree Days 0 0  
Month to date cooling degree days 0  
Year to date cooling degree days 1  
Moisture  
Dew Point 28 °F    
Average Humidity 60    
Maximum Humidity 93    
Minimum Humidity 31    
Precipitation  
Precipitation 0.03 in 0.10 in 1.85 in (1902)
Month to date precipitation 1.20  
Year to date precipitation 4.71  
Sea Level Pressure  
Sea Level Pressure 30.23 in    
Wind  
Wind Speed 4 mph (North)    
Max Wind Speed 16 mph    
Max Gust Speed 22 mph    
Visibility 10 miles    
Events Rain    
T = Trace of Precipitation, MM = Missing Value Source: NWS Daily Summary

Daily Weather History Graph

Daily Weather History Graph

Search for Another Location

Airport:

Trip Planner

Search our weather history database for the weather conditions in past years. The results will help you decide how hot, cold, wet, or windy it might be!

Date:

Astronomy

Mar. 12, 2013 Rise Set
Actual Time 7:36 AM CDT 7:26 PM CDT
Civil Twilight 7:11 AM CDT 7:52 PM CDT
Nautical Twilight 6:41 AM CDT 8:22 PM CDT
Astronomical Twilight 6:11 AM CDT 8:52 PM CDT
Moon 7:46 AM CDT (3/12) 8:39 PM CDT (3/12)
Length of Visible Light 12h 41m
Length of Day
11h 50m
New Moon, 1% of the Moon is Illuminated
Mar 12
New Moon
Mar 19
First Quarter
Mar 27
Full
Apr 2
Last Quarter
Apr 10
New

Hourly Weather History & Observations

Time (CDT) Temp. Windchill Dew Point Humidity Pressure Visibility Wind Dir Wind Speed Gust Speed Precip Events Conditions
12:15 AM 32.0 °F - 24.8 °F 75% 30.07 in 10.0 mi Calm Calm - N/A   Clear
12:35 AM 32.0 °F - 24.8 °F 75% 30.08 in 10.0 mi Calm Calm - N/A   Clear
12:55 AM 32.0 °F - 26.6 °F 80% 30.08 in 10.0 mi Calm Calm - N/A   Clear
1:15 AM 32.0 °F - 23.0 °F 69% 30.08 in 10.0 mi Calm Calm - N/A   Clear
1:35 AM 32.0 °F - 23.0 °F 69% 30.09 in 10.0 mi Calm Calm - N/A   Clear
1:55 AM 30.2 °F - 26.6 °F 86% 30.09 in 10.0 mi Calm Calm - N/A   Clear
2:15 AM 32.0 °F 27.5 °F 26.6 °F 80% 30.10 in 10.0 mi NNE 4.6 mph - N/A   Clear
2:35 AM 32.0 °F 27.5 °F 28.4 °F 87% 30.09 in 10.0 mi NNE 4.6 mph - N/A   Clear
2:55 AM 32.0 °F - 28.4 °F 87% 30.08 in 10.0 mi Calm Calm - N/A   Clear
3:15 AM 33.8 °F 29.6 °F 28.4 °F 81% 30.06 in 10.0 mi NE 4.6 mph - N/A   Clear
3:35 AM 33.8 °F - 28.4 °F 81% 30.09 in 10.0 mi Calm Calm - N/A   Clear
3:55 AM 35.6 °F - 28.4 °F 75% 30.11 in 10.0 mi Calm Calm - N/A   Clear
4:15 AM 35.6 °F 31.7 °F 28.4 °F 75% 30.12 in 10.0 mi WSW 4.6 mph - N/A   Clear
4:35 AM 33.8 °F - 28.4 °F 81% 30.12 in 10.0 mi Calm Calm - N/A   Clear
4:55 AM 35.6 °F 32.8 °F 28.4 °F 75% 30.15 in 10.0 mi West 3.5 mph - N/A   Scattered Clouds
5:15 AM 35.6 °F 31.7 °F 30.2 °F 81% 30.16 in 10.0 mi West 4.6 mph - N/A Rain Rain
5:35 AM 35.6 °F 31.7 °F 30.2 °F 81% 30.16 in 7.0 mi WSW 4.6 mph - N/A Rain Light Rain
5:55 AM 35.6 °F - 32.0 °F 87% 30.17 in 10.0 mi Calm Calm - N/A   Light Drizzle
6:15 AM 35.6 °F - 30.2 °F 81% 30.19 in 10.0 mi Calm Calm - N/A   Scattered Clouds
6:35 AM 35.6 °F - 32.0 °F 87% 30.19 in 5.0 mi Calm Calm - 0.01 in Rain Light Rain
6:55 AM 35.6 °F - 32.0 °F 87% 30.19 in 5.0 mi Calm Calm - 0.02 in Rain Light Rain
7:15 AM 35.6 °F - 32.0 °F 87% 30.18 in 7.0 mi Calm Calm - N/A Rain Light Rain
7:35 AM 35.6 °F - 32.0 °F 87% 30.19 in 10.0 mi Calm Calm - 0.01 in Rain Light Rain
7:55 AM 35.6 °F - 32.0 °F 87% 30.20 in 10.0 mi Calm Calm - 0.01 in Rain Light Rain
8:35 AM 35.6 °F - 33.8 °F 93% 30.22 in 10.0 mi Calm Calm - N/A   Light Drizzle
8:55 AM 37.4 °F - 33.8 °F 87% 30.23 in 10.0 mi Calm Calm - N/A   Clear
9:15 AM 37.4 °F - 35.6 °F 93% 30.24 in 10.0 mi Calm Calm - N/A   Clear
9:35 AM 41.0 °F 39.0 °F 35.6 °F 81% 30.25 in 10.0 mi WNW 3.5 mph - N/A   Clear
9:55 AM 41.0 °F - 37.4 °F 87% 30.25 in 10.0 mi Calm Calm - N/A   Clear
10:15 AM 42.8 °F 38.6 °F 35.6 °F 76% 30.25 in 10.0 mi North 6.9 mph - N/A   Clear
10:35 AM 44.6 °F 39.7 °F 35.6 °F 71% 30.26 in 10.0 mi North 9.2 mph - N/A   Clear
10:55 AM 44.6 °F 40.7 °F 35.6 °F 71% 30.27 in 10.0 mi North 6.9 mph - N/A   Clear
11:15 AM 46.4 °F 41.9 °F 33.8 °F 62% 30.27 in 10.0 mi North 9.2 mph - N/A   Clear
11:35 AM 48.2 °F - 33.8 °F 58% 30.27 in 10.0 mi North 6.9 mph - N/A   Scattered Clouds
11:55 AM 50.0 °F - 30.2 °F 47% 30.27 in 10.0 mi NNE 5.8 mph - N/A   Scattered Clouds
12:15 PM 51.8 °F - 30.2 °F 44% 30.28 in 10.0 mi NNE 6.9 mph - N/A   Clear
12:35 PM 51.8 °F - 26.6 °F 38% 30.28 in 10.0 mi NE 9.2 mph - N/A   Clear
12:55 PM 51.8 °F - 26.6 °F 38% 30.28 in 10.0 mi North 5.8 mph - N/A   Clear
1:15 PM 51.8 °F - 26.6 °F 38% 30.28 in 10.0 mi NNE 5.8 mph - N/A   Clear
1:35 PM 51.8 °F - 26.6 °F 38% 30.28 in 10.0 mi NNE 9.2 mph - N/A   Clear
1:55 PM 53.6 °F - 28.4 °F 38% 30.27 in 10.0 mi NNE 6.9 mph - N/A   Clear
2:15 PM 55.4 °F - 28.4 °F 36% 30.26 in 10.0 mi North 8.1 mph - N/A   Clear
2:35 PM 53.6 °F - 26.6 °F 35% 30.26 in 10.0 mi NW 9.2 mph - N/A   Clear
2:55 PM 55.4 °F - 26.6 °F 33% 30.26 in 10.0 mi NNW 10.4 mph 17.3 mph N/A   Clear
3:15 PM 55.4 °F - 28.4 °F 36% 30.25 in 10.0 mi NW 9.2 mph - N/A   Clear
3:35 PM 55.4 °F - 28.4 °F 36% 30.25 in 10.0 mi NW 8.1 mph - N/A   Clear
4:15 PM 55.4 °F - 28.4 °F 36% 30.25 in 10.0 mi NW 11.5 mph 16.1 mph N/A   Clear
4:35 PM 57.2 °F - 28.4 °F 33% 30.24 in 10.0 mi NNW 10.4 mph - N/A   Clear
5:15 PM 59.0 °F - 28.4 °F 31% 30.23 in 10.0 mi WNW 9.2 mph 17.3 mph N/A   Clear
5:35 PM 57.2 °F - 26.6 °F 31% 30.23 in 10.0 mi NNW 10.4 mph 20.7 mph N/A   Clear
5:55 PM 57.2 °F - 26.6 °F 31% 30.23 in 10.0 mi WNW 11.5 mph 17.3 mph N/A   Clear
6:15 PM 55.4 °F - 26.6 °F 33% 30.23 in 10.0 mi NW 16.1 mph 21.9 mph N/A   Clear
6:35 PM 55.4 °F - 26.6 °F 33% 30.24 in 10.0 mi NNW 13.8 mph 19.6 mph N/A   Clear
6:55 PM 53.6 °F - 28.4 °F 38% 30.25 in 10.0 mi NNW 9.2 mph 19.6 mph N/A   Clear
7:15 PM 53.6 °F - 26.6 °F 35% 30.26 in 10.0 mi NNW 10.4 mph - N/A   Clear
7:35 PM 51.8 °F - 26.6 °F 38% 30.27 in 10.0 mi NNW 12.7 mph 17.3 mph N/A   Clear
8:15 PM 48.2 °F - 26.6 °F 43% 30.30 in 10.0 mi North 9.2 mph - N/A   Clear
8:35 PM 48.2 °F - 24.8 °F 40% 30.31 in 10.0 mi North 8.1 mph - N/A   Clear
8:55 PM 46.4 °F 42.4 °F 24.8 °F 43% 30.32 in 10.0 mi North 8.1 mph - N/A   Clear
9:15 PM 46.4 °F 42.9 °F 24.8 °F 43% 30.33 in 10.0 mi North 6.9 mph - N/A   Clear
9:35 PM 44.6 °F 40.7 °F 26.6 °F 49% 30.33 in 10.0 mi NNE 6.9 mph - N/A   Clear
9:55 PM 42.8 °F 38.6 °F 24.8 °F 49% 30.34 in 10.0 mi NNE 6.9 mph - N/A   Clear
10:15 PM 42.8 °F 39.3 °F 24.8 °F 49% 30.35 in 10.0 mi North 5.8 mph - N/A   Clear
10:35 PM 42.8 °F 38.6 °F 23.0 °F 46% 30.36 in 10.0 mi North 6.9 mph - N/A   Clear
10:55 PM 41.0 °F 37.1 °F 23.0 °F 49% 30.36 in 10.0 mi NNE 5.8 mph - N/A   Clear
11:15 PM 39.2 °F 35.9 °F 23.0 °F 52% 30.36 in 10.0 mi NNE 4.6 mph - N/A   Clear
11:35 PM 37.4 °F 33.8 °F 23.0 °F 56% 30.37 in 10.0 mi NNE 4.6 mph - N/A   Clear
11:55 PM 37.4 °F 32.8 °F 23.0 °F 56% 30.37 in 10.0 mi NNE 5.8 mph - N/A   Clear